STARLINK-11148, 60044

Orbit data source: Space-Track

STARLINK-11148, 60044 is a payload satellite owned by SpaceX/Seattle (US) in LEO that was launched on Sat, 08 Jun 2024 UTC via an FALCON 9 launch vehicle from the Air Force Western Test Range (AFWTR). Payload-class satellites include a variety of spacecraft equipped with specific instruments for various scientific and technological missions. These include communications satellites like Starlink; space stations such as the ISS; scientific satellites like the Hubble; Earth observation satellites from companies like Planet Labs, Umbra, and HawkEye 360; GPS; miniature CubeSats for education and research; and military/defense satellites.

Loading next visibility...
Identifier
60044, 2024-112G
Orbit
LEO
Country
Flag of USUS
Related business
Manufacturer
SpaceX/Seattle
Mission
Operational Commercial Communications
Bus & Motor
STARLINK V2MD, Unknown motor
Mass
960 kg wet, ~910 kg dry
Launch date (UTC)
2024-06-08 (2 years ago)
Launch vehicle
FALCON 9
Launch site
Air Force Western Test Range (AFWTR)
Object type
Payload
Rocket body
Debris
Shape & HBR
Box + 2 Pan, 18.1 m
Radar Cross Section
36.964 m², Large (>1 m²)

Expand to show TLE details & history
Last TLE update: 1 day ago

TLE from 1 day ago
0 STARLINK-11148
1 60044U 24112G   26170.89481710  .00002201  00000-0  23009-4 0  9991
2 60044  53.1584 122.4206 0001172  94.4511 265.6641 15.69720842117030
Epoch: 2026-06-19T21:28Z
TLE epoch observation values (Epoch: 2026-06-19T21:28:32.197Z)
Latitude
-0°
Longitude
-107.8308°
Altitude
360.67 km
Speed
7.694 km/s
True Right ascension
08h 09m 40s
True Declination
0° 00' 00"
Sunlit
Object was in daylight at epoch
Visualization orbit readout
Latitude
Unknown
Longitude
Unknown
Altitude
Unknown
Speed
Unknown
Apparent Right ascension
Unknown
Apparent Declination
Unknown
Sunlit
N/A
Visualization observer readout
Local Sidereal Time
08:32:59
Azimuth
Unknown
Elevation
Unknown
Doppler factor
Unknown
Orbital elements
Apogee altitude
360.746 km
Perigee altitude
359.167 km
Semi-major axis
6,738.094 km
Eccentricity
0.00012
Inclination
53.1584°
RAAN
122.4206°
Arg. of periapsis
94.4511°
True anomaly
265.65071°
Mean anomaly
265.6641°
Eccentric anomaly
265.6574°
Mean motion
3.92408 °/min
Orbital period
91.74 mins
BSTAR
0.000023009
Loading maneuver chart data...
Computing Atmospheric mass density...
Loading historical data...
Loading historical data...
Loading historical data...
Loading historical data...
Loading historical data...
Loading historical data...
Loading historical data...

Documentation

Showing up to 5 results
|